This is the latest recevied weather packets stored in our database for station/object K5NAN. If no packets are shown the sender has not sent any weather packets the latest 10 day(s).
| Time | Temp. | Humidity | Pressure | Rain* | Wind** | Luminosity | Snow |
|---|---|---|---|---|---|---|---|
| 1777676726 | 16.67° C | 65% | 1014.2 hPa | 0 mm | - | 94 W/m² | - |
| 1777676423 | 16.67° C | 64% | 1014.2 hPa | 0 mm | - | 106 W/m² | - |
| 1777676121 | 16.67° C | 64% | 1014 hPa | 0 mm | - | 110 W/m² | - |
| 1777675816 | 16.67° C | 64% | 1013.9 hPa | 0 mm | - | 96 W/m² | - |
| 1777675514 | 16.67° C | 65% | 1014.1 hPa | 0 mm | - | 115 W/m² | - |
| 1777675211 | 16.67° C | 64% | 1014 hPa | 0 mm | - | 110 W/m² | - |
| 1777674907 | 16.67° C | 64% | 1014 hPa | 0 mm | - | 97 W/m² | - |
| 1777674604 | 16.67° C | 64% | 1013.9 hPa | 0 mm | - | 79 W/m² | - |
| 1777674301 | 16.67° C | 64% | 1013.9 hPa | 0 mm | - | 75 W/m² | - |
| 1777673997 | 16.67° C | 64% | 1013.8 hPa | 0 mm | - | 62 W/m² | - |
| 1777673693 | 16.67° C | 63% | 1013.9 hPa | 0 mm | - | 63 W/m² | - |
| 1777673391 | 16.67° C | 62% | 1014.1 hPa | 0 mm | - | 82 W/m² | - |
| 1777673089 | 16.67° C | 62% | 1014 hPa | 0 mm | - | 93 W/m² | - |
| 1777672784 | 16.67° C | 60% | 1014 hPa | 0 mm | - | 99 W/m² | - |
| 1777672482 | 16.67° C | 59% | 1014 hPa | 0 mm | - | 140 W/m² | - |
| 1777672177 | 16.67° C | 59% | 1013.6 hPa | 0 mm | - | 175 W/m² | - |
| 1777671873 | 17.22° C | 61% | 1013.8 hPa | 0 mm | - | 183 W/m² | - |
| 1777671568 | 16.67° C | 60% | 1013.8 hPa | 0 mm | - | 237 W/m² | - |
| 1777671266 | 17.22° C | 59% | 1013.6 hPa | 0 mm | - | 186 W/m² | - |
| 1777670961 | 17.22° C | 59% | 1013.6 hPa | 0 mm | - | 297 W/m² | - |
| 1777670658 | 16.67° C | 59% | 1013.8 hPa | 0 mm | - | 302 W/m² | - |
| 1777670354 | 16.67° C | 60% | 1013.8 hPa | 0 mm | - | 187 W/m² | - |
| 1777670052 | 16.67° C | 61% | 1014.3 hPa | 0 mm | - | 190 W/m² | - |
| 1777669750 | 16.67° C | 61% | 1014.1 hPa | 0 mm | - | 197 W/m² | - |
| 1777669446 | 16.67° C | 61% | 1014.2 hPa | 0 mm | - | 167 W/m² | - |
* Rain latest hour (hover to see other rain measurements)
** Current wind speed in m/s (hover to see current wind gust speed)